CAPE
0 0 0 0 0 0 0 0 0 0 0 0 2 4 0 0 0 0 0 0 0 0 0 0 0 0 0 0 0 0 0 0 0 0 0 176 333 107 247 201 56 66 38 115 4
0 0 0 0 0 0 0 0 0 0 0 0 2 4 0 0 0 0 0 0 0 0 0 0 0 0 0 0 0 0 0 0 0 0 0 203 292 132 351 75 186 86 79 27 0
0 0 0 0 0 0 0 0 0 0 0 0 2 2 1 1 0 0 0 0 0 0 0 0 0 0 0 0 0 0 0 0 0 0 0 245 239 220 286 78 212 30 140 32 0
0 0 0 0 0 0 0 0 0 0 0 0 0 0 0 0 0 0 0 0 0 0 0 0 0 0 0 0 0 0 0 0 0 0 142 289 297 337 133 84 101 71 141 60 0
0 0 0 0 0 0 0 0 0 0 0 0 0 0 0 0 0 0 0 0 0 0 0 0 0 0 0 0 0 0 0 0 0 0 166 288 360 357 277 101 129 97 159 129 71
0 0 0 0 0 0 0 0 0 0 0 0 0 0 0 0 0 0 0 0 0 0 0 0 0 0 0 0 0 0 0 0 0 0 4 345 318 370 239 160 110 113 183 199 176
0 0 0 0 0 0 0 0 0 0 0 0 0 0 0 0 0 0 0 0 0 0 0 0 0 0 0 0 0 0 0 0 0 0 16 178 243 395 233 251 146 91 214 247 253
0 0 0 0 0 0 0 0 0 0 0 0 0 0 0 0 0 0 0 0 0 0 0 0 0 0 0 0 0 0 0 0 0 0 0 78 0 196 317 350 211 212 211 226 284
0 0 0 0 0 0 0 0 0 0 0 0 0 0 0 0 0 0 0 0 0 0 0 0 0 0 0 0 0 0 0 0 0 0 22 27 0 38 379 357 208 310 295 287 310
0 0 0 0 0 0 0 0 0 0 0 0 0 0 0 0 0 0 0 0 0 0 0 0 0 0 0 0 0 0 0 0 0 0 47 0 15 49 447 355 148 275 412 400 402
0 0 0 0 0 0 0 0 0 0 0 0 0 0 0 0 0 0 0 0 0 0 0 0 0 0 0 0 0 0 0 0 0 0 5 87 18 28 409 488 217 223 322 474 589
0 0 0 0 0 0 0 0 0 0 0 0 0 0 0 0 0 0 0 0 0 0 0 0 0 0 0 0 0 0 0 0 0 0 0 0 70 64 69 545 413 237 294 348 508
0 0 0 0 0 0 0 0 0 0 0 0 0 0 0 0 0 0 0 0 0 0 0 0 0 0 0 0 0 0 0 0 0 0 0 0 0 0 0 47 405 447 334 332 412
0 0 0 0 0 0 0 0 0 0 0 0 0 0 0 0 0 0 0 0 0 0 0 0 0 0 0 0 0 0 0 0 0 0 0 0 0 0 0 15 135 319 346 332 344
0 0 0 0 0 0 0 0 0 0 0 0 0 0 0 0 0 0 0 0 0 0 0 0 0 0 0 0 0 0 0 0 0 0 0 0 0 0 0 0 133 274 369 327 326
0 0 0 0 0 0 0 0 0 0 0 0 0 0 0 0 0 0 0 0 0 0 0 0 0 0 0 0 0 0 0 0 0 0 0 0 0 0 0 0 0 147 291 314 318
0 0 0 0 0 0 0 0 0 0 0 0 0 0 0 0 0 0 0 0 0 0 0 0 0 0 0 0 0 0 0 0 0 0 0 0 0 0 0 0 0 0 65 242 301
0 0 0 0 0 0 0 0 0 0 0 0 0 0 0 0 0 0 0 0 0 0 0 0 0 0 0 0 0 0 0 0 0 0 0 0 0 0 0 0 0 0 0 1 270
0 0 0 0 0 0 0 0 0 0 0 0 0 0 0 0 0 0 0 0 0 0 0 0 0 0 0 0 0 0 0 0 0 0 0 0 0 0 0 0 0 1 8 6 46
0 0 0 0 0 0 0 0 0 0 0 0 0 0 0 0 0 0 0 0 1 0 0 0 0 0 0 0 0 0 0 0 0 0 0 0 0 0 0 0 24 22 23 28 32
0 0 0 0 0 0 0 0 0 0 0 0 0 0 0 0 0 0 0 0 0 0 0 0 0 0 0 0 0 0 0 0 0 0 0 0 0 0 0 12 17 43 17 117 294
0 0 0 0 0 0 0 0 0 0 0 0 0 0 0 0 0 11 4 6 0 17 0 0 0 0 0 0 0 0 0 0 0 0 0 0 0 0 0 0 0 14 102 504 824
0 0 0 0 0 0 0 0 0 0 0 0 0 0 0 0 0 28 5 0 0 28 42 8 3 0 2 2 0 0 0 0 0 0 0 0 0 0 0 17 58 124 416 862 992
0 0 0 0 0 0 0 0 0 0 0 0 0 0 0 0 0 0 15 20 1 10 0 2 10 0 0 0 0 1 0 0 0 0 0 0 0 5 42 66 260 294 666 932 1044
0 0 0 0 0 0 0 0 0 0 0 0 0 0 0 0 0 1 13 12 0 0 1 46 43 42 6 0 0 4 9 3 0 0 0 1 18 81 73 93 424 341 756 926 939
0 0 0 0 0 0 0 0 0 0 0 0 0 0 0 0 0 0 0 0 0 0 0 0 6 0 0 0 0 18 25 8 0 0 3 22 121 107 97 556 462 533 952 1154 1073
0 0 0 0 0 0 0 0 0 0 0 0 0 0 0 0 0 0 0 0 12 0 0 0 0 0 0 0 0 0 2 13 25 35 33 71 108 217 510 780 765 599 846 986 807
CIN
-0 -0 -0 -0 -0 -0 -0 -0 -0 -0 -0 -0 -0 -0 -0 -0 -0 -0 -0 -0 -0 -0 -0 -0 -0 -0 -0 -0 -0 -0 -0 -0 -0 -0 -7 -174 -88 -212 -201 -205 -224 -230 -215 -155 -35
-0 -0 -0 -0 -0 -0 -0 -0 -0 -0 -0 -0 -0 -0 -0 -0 -0 -0 -0 -0 -0 -0 -0 -0 -0 -0 -0 -0 -0 -0 -0 -0 -0 -0 -6 -118 -68 -148 -133 -215 -179 -247 -259 -284 -0
-0 -0 -0 -0 -0 -0 -0 -0 -0 -0 -0 -0 -0 -0 -0 -0 -0 -0 -0 -0 -0 -0 -0 -0 -0 -0 -0 -0 -0 -0 -0 -0 -0 -0 -36 -106 -113 -129 -113 -193 -158 -179 -217 -274 -0
-0 -0 -0 -0 -0 -0 -0 -0 -0 -0 -0 -0 -0 -0 -0 -0 -0 -0 -0 -0 -0 -0 -0 -0 -0 -0 -0 -0 -0 -0 -0 -0 -0 -0 -150 -92 -88 -124 -108 -180 -204 -241 -189 -226 -4
-0 -0 -0 -0 -0 -0 -0 -0 -0 -0 -0 -0 -0 -0 -0 -0 -0 -0 -0 -0 -0 -0 -0 -0 -0 -0 -0 -0 -0 -0 -0 -0 -0 -0 -106 -117 -79 -64 -116 -218 -212 -254 -210 -188 -196
-0 -0 -0 -0 -0 -0 -0 -0 -0 -0 -0 -0 -0 -0 -0 -0 -0 -0 -0 -0 -0 -0 -0 -0 -0 -0 -0 -0 -0 -0 -0 -0 -0 -0 -38 -75 -125 -74 -160 -229 -226 -246 -189 -146 -160
-0 -0 -0 -0 -0 -0 -0 -0 -0 -0 -0 -0 -0 -0 -0 -0 -0 -0 -0 -0 -0 -0 -0 -0 -0 -0 -0 -0 -0 -0 -0 -0 -0 -0 -162 -107 -101 -74 -186 -196 -202 -212 -198 -172 -152
-0 -0 -0 -0 -0 -0 -0 -0 -0 -0 -0 -0 -0 -0 -0 -0 -0 -0 -0 -0 -0 -0 -0 -0 -0 -0 -0 -0 -0 -0 -0 -0 -0 -0 -0 -80 -0 -55 -180 -164 -177 -211 -212 -207 -172
-0 -0 -0 -0 -0 -0 -0 -0 -0 -0 -0 -0 -0 -0 -0 -0 -0 -0 -0 -0 -0 -0 -0 -0 -0 -0 -0 -0 -0 -0 -0 -0 -0 -0 -168 -102 -0 -130 -183 -157 -162 -203 -194 -200 -191
-0 -0 -0 -0 -0 -0 -0 -0 -0 -0 -0 -0 -0 -0 -0 -0 -0 -0 -0 -0 -0 -0 -0 -0 -0 -0 -0 -0 -0 -0 -0 -0 -0 -0 -116 -0 -109 -196 -157 -152 -139 -164 -188 -188 -183
-0 -0 -0 -0 -0 -0 -0 -0 -0 -0 -0 -0 -0 -0 -0 -0 -0 -0 -0 -0 -0 -0 -0 -0 -0 -0 -0 -0 -0 -0 -0 -0 -0 -0 -17 -69 -81 -125 -138 -167 -153 -167 -195 -167 -164
-0 -0 -0 -0 -0 -0 -0 -0 -0 -0 -0 -0 -0 -0 -0 -0 -0 -0 -0 -0 -0 -0 -0 -0 -0 -0 -0 -0 -0 -0 -0 -0 -0 -0 -0 -38 -67 -66 -210 -185 -151 -169 -187 -162 -138
-0 -0 -0 -0 -0 -0 -0 -0 -0 -0 -0 -0 -0 -0 -0 -0 -0 -0 -0 -0 -0 -0 -0 -0 -0 -0 -0 -0 -0 -0 -0 -0 -0 -0 -0 -0 -0 -0 -0 -193 -211 -216 -225 -167 -135
-0 -0 -0 -0 -0 -0 -0 -0 -0 -0 -0 -0 -0 -0 -0 -0 -0 -0 -0 -0 -0 -0 -0 -0 -0 -0 -0 -0 -0 -0 -0 -0 -0 -0 -0 -0 -0 -0 -0 -277 -285 -253 -265 -224 -189
-0 -0 -0 -0 -0 -0 -0 -0 -0 -0 -0 -0 -0 -0 -0 -0 -0 -0 -0 -0 -0 -0 -0 -0 -0 -0 -0 -0 -0 -0 -0 -0 -0 -0 -0 -0 -0 -0 -0 -0 -174 -228 -246 -244 -216
-0 -0 -0 -0 -0 -0 -0 -0 -0 -0 -0 -0 -0 -0 -0 -0 -0 -0 -0 -0 -0 -0 -0 -0 -0 -0 -0 -0 -0 -0 -0 -0 -0 -0 -0 -0 -0 -0 -0 -0 -0 -136 -199 -220 -222
-0 -0 -0 -0 -0 -0 -0 -0 -0 -0 -0 -0 -0 -0 -0 -0 -0 -0 -0 -0 -0 -0 -0 -0 -0 -0 -0 -0 -0 -0 -0 -0 -0 -0 -0 -0 -0 -0 -0 -0 -0 -0 -144 -189 -231
-0 -0 -0 -0 -0 -0 -0 -0 -0 -0 -0 -0 -0 -0 -0 -0 -0 -0 -0 -0 -0 -0 -0 -0 -0 -0 -0 -0 -0 -0 -0 -0 -0 -0 -0 -0 -0 -0 -0 -0 -0 -0 -0 -225 -240
-0 -0 -0 -0 -0 -0 -0 -0 -0 -0 -0 -0 -0 -0 -0 -0 -0 -0 -0 -0 -0 -0 -0 -0 -0 -0 -0 -0 -0 -0 -0 -0 -0 -0 -0 -0 -0 -0 -0 -0 -0 -40 -405 -561 -338
-0 -0 -0 -0 -0 -0 -0 -0 -0 -0 -0 -0 -0 -0 -0 -0 -0 -0 -0 -0 -54 -0 -0 -0 -0 -0 -0 -0 -0 -0 -0 -0 -0 -0 -0 -0 -0 -0 -0 -0 -72 -120 -193 -430 -567
-0 -0 -0 -0 -0 -0 -0 -0 -0 -0 -0 -0 -0 -0 -0 -0 -0 -0 -0 -0 -34 -0 -0 -0 -0 -0 -0 -0 -0 -0 -0 -0 -0 -0 -0 -0 -0 -0 -0 -87 -115 -95 -279 -493 -537
-0 -0 -0 -0 -0 -0 -0 -0 -0 -0 -0 -0 -0 -0 -0 -0 -0 -90 -108 -126 -0 -281 -0 -0 -0 -0 -0 -0 -0 -0 -0 -0 -0 -0 -0 -0 -0 -0 -0 -0 -13 -224 -390 -505 -524
-0 -0 -0 -0 -0 -0 -0 -0 -0 -0 -0 -0 -0 -0 -0 -0 -0 -105 -162 -12 -0 -230 -140 -157 -4 -0 -28 -6 -0 -0 -0 -0 -0 -0 -0 -0 -0 -0 -0 -270 -336 -342 -437 -469 -423
-0 -0 -0 -0 -0 -0 -0 -0 -0 -0 -0 -0 -0 -0 -0 -0 -0 -0 -119 -196 -75 -285 -0 -28 -91 -0 -0 -0 -0 -37 -0 -0 -0 -0 -0 -0 -0 -29 -116 -245 -310 -412 -461 -413 -353
-0 -0 -0 -0 -0 -0 -0 -0 -0 -0 -0 -0 -0 -0 -0 -0 -0 -57 -151 -165 -0 -0 -224 -184 -56 -134 -94 -0 -0 -138 -93 -47 -0 -0 -0 -10 -56 -32 -157 -243 -300 -424 -400 -362 -314
-0 -0 -0 -0 -0 -0 -0 -0 -0 -0 -0 -0 -0 -0 -0 -0 -0 -0 -0 -0 -0 -0 -0 -0 -87 -0 -0 -0 -0 -128 -83 -78 -0 -0 -54 -46 -25 -90 -272 -266 -286 -344 -273 -218 -221
-0 -0 -0 -0 -0 -0 -0 -0 -0 -0 -0 -0 -0 -0 -0 -0 -0 -0 -0 -0 -110 -0 -0 -0 -0 -0 -0 -0 -0 -0 -49 -21 -44 -71 -58 -24 -18 -135 -143 -164 -209 -290 -225 -178 -200
Wind_Speed
15 16 15 16 16 17 16 16 18 16 16 17 15 12 11 10 8 4 5 3 4 12 7 10 4 4 3 4 2 2 2 1 1 3 1 8 8 5 5 12 4 2 5 12 19
15 16 17 17 18 20 20 19 17 18 16 16 14 11 9 6 2 5 5 4 4 13 9 12 9 8 4 3 3 3 2 3 2 3 4 12 10 10 6 12 5 8 12 19 18
16 17 18 19 20 20 21 21 18 17 18 16 13 10 7 2 3 4 4 8 13 6 7 5 9 4 3 3 4 4 2 1 2 7 7 14 9 7 12 9 6 14 18 19 18
17 18 19 19 19 19 20 21 21 18 17 14 11 6 5 1 1 1 7 8 8 6 8 7 5 5 4 6 5 4 5 5 3 5 11 13 9 9 8 3 7 18 19 18 17
15 17 19 20 21 21 21 20 20 20 16 12 7 3 3 2 2 3 11 8 7 6 6 6 5 4 4 4 6 6 5 6 6 7 11 12 11 5 10 8 13 19 18 18 18
15 17 19 21 22 23 23 20 19 19 14 7 2 1 2 3 2 7 12 11 8 4 6 5 4 3 2 3 5 7 3 4 4 7 9 16 6 5 6 13 15 19 19 17 17
14 16 19 21 23 23 24 23 18 17 9 1 4 2 2 5 0 7 8 5 6 5 6 4 4 1 3 3 2 1 3 2 4 8 6 11 4 12 10 14 17 18 17 16 17
13 15 18 21 23 25 26 22 17 9 2 5 4 1 5 2 5 7 4 4 4 3 1 2 3 0 2 1 1 4 1 4 2 10 4 15 15 12 11 16 17 17 16 16 17
14 15 18 21 23 25 27 21 11 1 4 5 1 2 4 3 2 4 6 3 6 4 2 2 1 1 2 3 4 1 5 3 6 4 7 13 7 9 10 15 17 17 16 16 16
12 15 18 21 23 26 26 14 4 3 3 3 2 3 2 1 3 4 3 4 3 7 4 2 2 3 2 5 10 7 6 3 4 10 11 15 8 3 11 16 17 17 16 16 16
13 15 18 21 23 25 12 3 7 2 6 5 7 6 6 6 3 2 3 7 2 3 5 2 5 6 3 1 1 2 4 7 4 4 9 16 17 10 11 14 16 17 17 18 18
12 14 18 23 22 17 4 7 5 6 12 9 11 11 8 5 4 2 8 5 4 5 4 4 8 5 5 4 2 2 4 2 2 2 9 12 18 20 12 20 22 20 18 19 19
11 13 17 24 17 5 4 7 4 3 5 7 5 5 2 10 6 5 10 5 4 5 5 5 1 8 4 4 5 3 5 5 2 3 1 2 7 9 10 16 17 19 19 18 20
9 11 15 26 3 6 3 2 7 5 4 4 2 1 5 3 4 4 6 4 2 3 6 4 3 5 5 4 7 5 11 7 7 7 6 6 6 5 7 10 16 20 20 22 22
7 8 10 8 4 5 5 10 3 3 2 3 2 5 3 5 4 5 1 2 7 5 4 3 5 8 5 3 9 3 5 6 5 8 4 7 6 4 4 8 15 20 24 25 25
7 7 8 0 2 5 9 11 3 3 4 2 2 3 4 3 3 3 2 4 2 4 1 2 1 3 3 4 8 6 5 3 2 4 8 9 10 7 6 7 6 14 21 25 26
8 9 5 2 3 5 8 3 3 5 2 2 2 2 3 4 4 3 9 8 6 4 3 2 4 2 3 4 3 4 5 5 7 8 9 2 7 11 8 13 14 14 12 18 22
9 10 0 3 3 7 3 1 6 2 4 3 2 0 4 2 3 2 7 8 3 3 2 3 4 4 2 5 2 5 5 7 9 10 9 4 6 5 6 11 10 10 12 12 19
7 2 2 1 2 3 3 4 4 4 3 5 4 2 2 2 4 3 3 2 1 5 4 3 2 2 4 2 2 4 6 3 3 2 4 3 4 11 7 13 12 12 8 12 18
2 3 2 2 5 2 3 4 4 3 5 3 1 1 2 2 3 3 2 3 1 2 4 2 4 1 1 2 2 5 5 3 1 6 10 6 4 5 10 12 9 12 9 11 11
1 2 3 4 3 1 4 5 4 5 4 3 1 2 1 2 3 3 2 3 2 2 3 2 2 2 3 5 2 5 4 1 2 3 7 8 6 4 10 10 13 9 6 9 8
2 1 3 2 3 0 3 3 2 2 2 3 2 2 1 2 3 4 4 2 5 1 3 2 2 3 4 2 4 3 2 3 4 3 2 5 8 4 8 11 11 10 5 5 1
2 0 2 3 3 3 3 2 3 2 2 2 3 3 2 1 4 4 3 2 5 3 3 5 1 2 1 4 2 2 1 4 4 2 5 7 5 3 6 7 5 5 2 5 3
2 2 2 2 1 2 2 4 3 2 4 3 3 2 2 1 2 4 4 2 2 4 6 2 3 1 3 3 3 6 7 5 5 4 4 8 13 12 7 5 5 3 4 6 6
0 2 2 4 4 5 2 3 2 3 4 4 3 6 3 2 2 4 2 3 3 2 3 2 3 2 5 9 6 7 11 10 8 9 6 6 7 12 8 4 0 0 4 9 11
4 3 2 1 2 3 5 3 6 3 4 4 4 1 9 3 3 7 6 3 2 3 2 2 3 2 3 1 4 8 11 12 11 10 11 8 12 4 4 3 5 4 5 9 12
1 0 1 2 2 3 4 4 3 2 6 6 3 1 7 4 1 3 3 6 5 3 3 1 3 2 2 4 9 8 7 10 7 4 4 7 7 7 7 9 10 10 7 8 11
Wind_Direction
344 342 335 331 329 323 321 318 318 318 309 309 311 322 325 325 308 174 229 180 160 140 122 127 137 141 143 138 152 173 189 123 205 227 88 160 169 127 98 137 141 138 145 128 141
343 339 334 333 330 325 322 320 319 313 311 307 311 321 321 335 278 241 248 193 165 151 129 152 153 157 157 140 153 191 219 175 213 236 218 181 187 144 134 153 136 97 104 130 146
343 339 334 332 328 324 318 317 320 315 314 312 313 322 307 326 257 33 142 147 153 167 130 125 141 177 162 173 169 165 188 195 211 232 201 171 178 158 136 182 193 161 152 153 158
338 336 333 329 324 319 318 317 316 319 316 311 308 319 300 204 194 45 166 155 149 118 125 130 142 165 157 177 173 189 239 236 310 154 171 177 157 155 156 118 189 162 163 162 170
335 334 332 329 325 322 320 317 316 316 320 308 302 308 240 307 279 25 133 140 135 144 154 146 154 157 187 180 153 211 218 213 254 192 203 162 191 171 172 95 139 148 165 178 183
335 334 332 329 325 322 318 321 319 315 318 303 291 233 280 282 97 143 132 144 156 149 152 164 175 194 142 175 226 183 221 289 299 228 209 188 170 197 113 132 144 159 177 185 195
331 330 329 327 325 322 320 325 321 316 321 133 145 256 250 254 27 163 161 167 174 171 160 201 164 196 146 191 239 175 213 156 33 158 175 173 189 221 139 151 160 178 184 191 204
330 327 326 328 325 322 320 324 317 307 81 126 151 272 260 119 116 153 178 138 174 228 231 135 179 161 205 357 175 194 178 222 113 174 166 195 224 201 158 165 175 190 190 199 205
331 328 327 328 325 323 320 320 311 30 138 137 230 339 273 149 201 178 183 162 155 168 264 107 150 18 165 203 184 98 192 174 155 192 169 204 234 212 175 189 185 190 197 205 210
331 329 329 329 327 325 317 312 171 155 191 207 232 252 249 104 309 158 206 168 153 135 140 164 110 160 129 204 211 183 169 158 162 190 192 193 232 197 192 196 203 200 200 205 215
334 333 333 330 329 326 337 356 1 342 29 264 274 283 274 309 249 159 178 154 130 142 163 110 200 200 177 158 111 122 158 161 159 181 181 212 225 219 200 214 214 212 210 210 219
335 338 337 330 332 323 349 62 58 311 304 271 244 261 273 289 290 202 166 153 171 167 134 162 222 178 137 144 165 149 144 212 311 249 218 213 229 236 208 216 216 215 214 216 222
337 341 339 328 327 27 12 84 355 223 267 300 211 230 222 171 206 223 179 138 153 155 178 207 109 144 165 146 167 196 212 180 144 48 293 334 259 240 225 235 226 230 227 226 225
341 348 348 326 70 341 318 48 334 193 297 276 246 177 141 185 208 204 188 149 131 191 170 213 146 192 167 205 196 216 210 208 156 183 229 205 237 245 234 244 219 222 218 222 227
339 348 355 11 311 301 323 336 345 209 319 20 95 129 135 203 125 191 230 124 172 161 197 108 152 160 174 170 190 198 137 193 176 205 203 194 250 223 226 224 224 220 219 221 220
327 326 353 213 274 266 321 315 185 250 251 353 115 157 169 198 138 108 144 73 89 130 184 265 216 228 192 185 195 130 126 81 99 173 228 216 230 217 225 229 247 232 222 220 216
309 299 300 283 294 324 318 305 207 234 346 4 352 344 231 155 148 154 169 176 191 177 222 241 211 247 202 217 176 206 180 203 213 214 247 121 213 256 234 237 239 261 246 227 221
302 309 162 234 271 327 305 171 223 234 260 334 334 222 163 143 75 100 147 172 80 87 116 350 118 190 119 237 237 184 215 238 228 227 238 142 220 232 258 275 251 257 275 264 222
311 311 299 225 255 185 192 188 236 223 321 326 303 92 100 138 120 109 76 120 205 193 221 180 180 282 223 239 248 136 222 341 153 89 252 244 248 275 272 260 259 268 269 252 234
354 334 290 344 161 173 187 235 240 251 322 300 3 343 113 69 110 105 78 45 77 163 245 179 245 204 285 228 142 245 126 201 211 236 249 216 246 254 279 272 270 273 305 314 286
53 304 31 144 203 231 212 231 261 252 261 300 321 332 356 99 91 103 120 93 20 77 151 135 240 164 267 210 240 159 189 154 282 258 268 271 258 229 273 292 287 282 309 321 329
121 243 73 178 171 329 215 213 272 308 304 289 274 263 277 0 80 102 116 50 360 180 89 62 121 241 273 76 321 315 315 204 260 227 264 300 265 219 267 283 285 290 304 17 32
135 50 139 248 207 201 229 255 264 256 270 317 294 251 204 57 101 108 129 91 5 67 120 166 69 297 205 149 120 50 171 136 114 201 243 284 294 216 296 286 302 285 25 68 121
149 157 176 187 321 293 243 234 243 241 237 247 277 295 306 133 33 136 123 60 45 83 63 109 108 301 299 320 314 288 289 300 234 261 292 272 294 284 290 306 321 311 92 108 122
3 169 325 164 205 227 251 307 284 300 224 202 219 229 201 135 91 112 109 129 71 38 72 24 116 221 256 263 271 271 288 295 251 269 258 302 271 299 293 279 272 333 129 135 135
146 185 149 141 254 200 179 230 245 239 234 202 217 265 213 203 181 170 146 192 164 97 76 56 147 201 266 306 258 281 282 277 267 267 249 261 271 262 270 195 165 150 162 152 143
124 82 248 103 202 186 186 225 242 345 232 245 206 25 159 174 210 80 42 94 115 124 107 62 153 226 239 325 309 265 314 296 295 230 261 245 292 331 266 215 181 160 165 143 131